EWG8NY EDDH-EDDK

Flight info

Callsign EWG8NY
Flight time 0h 42m
Altitude 27000
Route IDEKO7G/33 IDEKO N850 LARBU DCT PODER Z189 RUNER T858 KOPAG KOPAG1F
Aircraft A320/M-SDE3FGHIRWY/LB1

Departure

Time 2026-04-21 20:05
Airport Hamburg Helmut Schmidt Airport (EDDH)

Arrival

Time 2026-04-21 20:48
Airport Cologne Bonn Airport (EDDK)
Time Latitude Longitude Altitude Speed Heading
2026-04-21 19:42 53.63281 10.00377 51 ft 0 kts 85°
2026-04-21 19:57 53.63281 10.00361 51 ft 2 kts 85°
2026-04-21 19:57 53.63279 10.00332 51 ft 2 kts 85°
2026-04-21 19:57 53.63278 10.00304 51 ft 2 kts 85°
2026-04-21 19:57 53.63277 10.00276 51 ft 2 kts 85°
2026-04-21 19:58 53.63276 10.00247 51 ft 3 kts 101°
2026-04-21 19:58 53.63279 10.00219 51 ft 2 kts 102°
2026-04-21 19:58 53.63285 10.00191 44 ft 3 kts 133°
2026-04-21 19:58 53.63298 10.00172 47 ft 2 kts 144°
2026-04-21 19:59 53.63313 10.00160 48 ft 2 kts 168°
2026-04-21 19:59 53.63314 10.00159 48 ft 0 kts 168°
2026-04-21 20:01 53.63304 10.00163 49 ft 6 kts 168°
2026-04-21 20:01 53.63233 10.00177 49 ft 11 kts 176°
2026-04-21 20:01 53.63149 10.00187 51 ft 16 kts 176°
2026-04-21 20:02 53.63032 10.00147 51 ft 17 kts 212°
2026-04-21 20:02 53.62953 10.00059 51 ft 10 kts 217°
2026-04-21 20:02 53.62911 9.99968 51 ft 9 kts 242°
2026-04-21 20:02 53.62885 9.99880 51 ft 8 kts 244°
2026-04-21 20:03 53.62861 9.99752 53 ft 11 kts 297°
2026-04-21 20:03 53.62892 9.99717 53 ft 0 kts 336°
2026-04-21 20:04 53.62902 9.99710 53 ft 9 kts 336°
2026-04-21 20:04 53.63172 9.99481 51 ft 84 kts 333°
2026-04-21 20:05 53.63896 9.98856 49 ft 147 kts 333°
2026-04-21 20:05 53.64911 9.98043 424 ft 169 kts 337°
2026-04-21 20:05 53.66036 9.97148 987 ft 188 kts 338°
2026-04-21 20:05 53.67260 9.96159 1642 ft 202 kts 338°
2026-04-21 20:06 53.68554 9.95053 2281 ft 217 kts 335°
2026-04-21 20:06 53.69921 9.93779 3019 ft 230 kts 334°
2026-04-21 20:06 53.71188 9.92143 4076 ft 231 kts 311°
2026-04-21 20:06 53.71803 9.89604 4929 ft 242 kts 274°
2026-04-21 20:07 53.71495 9.86776 5725 ft 253 kts 249°
2026-04-21 20:07 53.70700 9.84014 6333 ft 273 kts 243°
2026-04-21 20:07 53.70157 9.82044 6771 ft 284 kts 246°
2026-04-21 20:07 53.69180 9.77878 7919 ft 292 kts 250°
2026-04-21 20:08 53.68501 9.74618 8844 ft 297 kts 251°
2026-04-21 20:08 53.67842 9.71282 9773 ft 302 kts 252°
2026-04-21 20:08 53.67182 9.67882 10627 ft 310 kts 252°
2026-04-21 20:08 53.66297 9.64423 10973 ft 334 kts 239°
2026-04-21 20:09 53.64848 9.61266 11447 ft 347 kts 223°
2026-04-21 20:09 53.62938 9.58791 11902 ft 347 kts 207°
2026-04-21 20:09 53.60723 9.57218 12367 ft 345 kts 192°
2026-04-21 20:09 53.58363 9.56558 12840 ft 344 kts 182°
2026-04-21 20:10 53.55972 9.56102 13321 ft 347 kts 182°
2026-04-21 20:10 53.53571 9.55638 13808 ft 349 kts 183°
2026-04-21 20:10 53.51148 9.55163 14283 ft 351 kts 183°
2026-04-21 20:10 53.48712 9.54682 14726 ft 354 kts 183°
2026-04-21 20:11 53.46258 9.54194 15173 ft 356 kts 183°
2026-04-21 20:11 53.43792 9.53705 15624 ft 358 kts 183°
2026-04-21 20:11 53.41310 9.53214 16080 ft 360 kts 182°
2026-04-21 20:11 53.38809 9.52720 16546 ft 363 kts 182°
2026-04-21 20:12 53.36293 9.52229 17017 ft 365 kts 182°
2026-04-21 20:12 53.33764 9.51738 17493 ft 368 kts 182°
2026-04-21 20:12 53.32042 9.51405 17825 ft 369 kts 182°
2026-04-21 20:12 53.28645 9.50746 18481 ft 373 kts 182°
2026-04-21 20:13 53.26062 9.50243 18932 ft 375 kts 182°
2026-04-21 20:13 53.23459 9.49735 19369 ft 378 kts 182°
2026-04-21 20:13 53.20839 9.49219 19816 ft 380 kts 182°
2026-04-21 20:13 53.18202 9.48702 20270 ft 383 kts 182°
2026-04-21 20:14 53.15546 9.48184 20722 ft 385 kts 181°
2026-04-21 20:14 53.12872 9.47663 21195 ft 388 kts 181°
2026-04-21 20:14 53.10184 9.47139 21672 ft 391 kts 181°
2026-04-21 20:14 53.07471 9.46612 22149 ft 394 kts 181°
2026-04-21 20:15 53.04742 9.46085 22643 ft 397 kts 181°
2026-04-21 20:15 53.01988 9.45558 23139 ft 400 kts 181°
2026-04-21 20:15 52.99211 9.45031 23649 ft 403 kts 181°
2026-04-21 20:15 52.96416 9.44478 24122 ft 406 kts 181°
2026-04-21 20:16 52.93601 9.43883 24551 ft 409 kts 182°
2026-04-21 20:16 52.90806 9.43267 24985 ft 412 kts 182°
2026-04-21 20:16 52.87956 9.42629 25426 ft 415 kts 182°
2026-04-21 20:16 52.85083 9.41994 25877 ft 418 kts 182°
2026-04-21 20:17 52.82198 9.41370 26348 ft 420 kts 182°
2026-04-21 20:17 52.80232 9.40950 26650 ft 422 kts 182°
2026-04-21 20:17 52.77314 9.40333 27117 ft 424 kts 182°
2026-04-21 20:17 52.74370 9.39715 27299 ft 427 kts 182°
2026-04-21 20:18 52.71474 9.39099 27329 ft 413 kts 182°
2026-04-21 20:18 52.68646 9.38488 27327 ft 407 kts 182°
2026-04-21 20:18 52.65843 9.37887 27327 ft 405 kts 181°
2026-04-21 20:18 52.63048 9.37294 27329 ft 407 kts 181°
2026-04-21 20:19 52.60180 9.36665 27331 ft 424 kts 182°
2026-04-21 20:19 52.57215 9.35934 27330 ft 438 kts 184°
2026-04-21 20:19 52.54161 9.35127 27329 ft 451 kts 184°
2026-04-21 20:19 52.51029 9.34272 27330 ft 462 kts 185°
2026-04-21 20:20 52.47832 9.33395 27330 ft 470 kts 185°
2026-04-21 20:20 52.44596 9.32517 27328 ft 472 kts 185°
2026-04-21 20:20 52.41348 9.31646 27330 ft 473 kts 185°
2026-04-21 20:20 52.38096 9.30784 27329 ft 473 kts 184°
2026-04-21 20:21 52.34843 9.29938 27327 ft 473 kts 184°
2026-04-21 20:21 52.31587 9.29099 27327 ft 473 kts 184°
2026-04-21 20:21 52.28336 9.28259 27166 ft 474 kts 185°
2026-04-21 20:21 52.25126 9.26925 26900 ft 481 kts 198°
2026-04-21 20:22 52.22129 9.24441 26761 ft 485 kts 206°
2026-04-21 20:22 52.16240 9.19002 26506 ft 486 kts 206°
2026-04-21 20:22 52.13306 9.16265 26381 ft 486 kts 206°
2026-04-21 20:23 52.10370 9.13533 26255 ft 486 kts 206°
2026-04-21 20:23 52.07430 9.10809 26129 ft 486 kts 206°
2026-04-21 20:23 52.04484 9.08093 26001 ft 486 kts 206°
2026-04-21 20:23 52.01538 9.05385 25873 ft 486 kts 206°
2026-04-21 20:24 51.98589 9.02682 25747 ft 487 kts 206°
2026-04-21 20:24 51.95641 8.99988 25622 ft 487 kts 206°
2026-04-21 20:24 51.92693 8.97293 25497 ft 487 kts 206°
2026-04-21 20:24 51.89740 8.94600 25293 ft 487 kts 206°
2026-04-21 20:25 51.86791 8.91913 25312 ft 487 kts 206°
2026-04-21 20:25 51.83840 8.89228 25309 ft 487 kts 206°
2026-04-21 20:25 51.80926 8.86588 25310 ft 487 kts 206°
2026-04-21 20:25 51.77968 8.83918 25306 ft 487 kts 206°
2026-04-21 20:26 51.75012 8.81250 25306 ft 487 kts 206°
2026-04-21 20:26 51.72060 8.78579 25305 ft 487 kts 206°
2026-04-21 20:26 51.69105 8.75902 25305 ft 487 kts 206°
2026-04-21 20:26 51.66157 8.73236 25303 ft 486 kts 206°
2026-04-21 20:27 51.63198 8.70570 25303 ft 486 kts 206°
2026-04-21 20:27 51.60247 8.67913 25302 ft 486 kts 206°
2026-04-21 20:27 51.57295 8.65251 25304 ft 486 kts 206°
2026-04-21 20:27 51.54348 8.62592 25301 ft 486 kts 206°
2026-04-21 20:28 51.51392 8.59929 25055 ft 487 kts 206°
2026-04-21 20:28 51.48439 8.57279 24574 ft 487 kts 206°
2026-04-21 20:28 51.45481 8.54635 24101 ft 484 kts 206°
2026-04-21 20:28 51.42560 8.52025 23577 ft 478 kts 206°
2026-04-21 20:29 51.39657 8.49440 23016 ft 477 kts 206°
2026-04-21 20:29 51.36754 8.46858 22463 ft 478 kts 206°
2026-04-21 20:29 51.33852 8.44280 21931 ft 478 kts 206°
2026-04-21 20:29 51.30967 8.41711 21340 ft 463 kts 207°
2026-04-21 20:30 51.28413 8.38816 20777 ft 440 kts 220°
2026-04-21 20:30 51.26432 8.35253 20225 ft 421 kts 234°
2026-04-21 20:30 51.24927 8.31265 19700 ft 418 kts 239°
2026-04-21 20:30 51.23480 8.27277 19203 ft 413 kts 239°
2026-04-21 20:31 51.22038 8.23324 18717 ft 409 kts 239°
2026-04-21 20:31 51.20614 8.19417 18185 ft 406 kts 239°
2026-04-21 20:31 51.19202 8.15546 17634 ft 402 kts 239°
2026-04-21 20:31 51.17800 8.11709 17092 ft 398 kts 239°
2026-04-21 20:32 51.16411 8.07918 16566 ft 395 kts 239°
2026-04-21 20:32 51.15028 8.04162 16036 ft 391 kts 239°
2026-04-21 20:32 51.13654 8.00438 15524 ft 388 kts 239°
2026-04-21 20:32 51.12311 7.96799 15027 ft 385 kts 239°
2026-04-21 20:33 51.10965 7.93150 14533 ft 381 kts 239°
2026-04-21 20:33 51.09626 7.89522 14039 ft 378 kts 239°
2026-04-21 20:33 51.08301 7.85931 13485 ft 375 kts 239°
2026-04-21 20:33 51.07101 7.82282 12949 ft 371 kts 249°
2026-04-21 20:34 51.06450 7.78353 12432 ft 366 kts 264°
2026-04-21 20:34 51.06308 7.74392 12263 ft 352 kts 269°
2026-04-21 20:34 51.06204 7.70611 12284 ft 334 kts 269°
2026-04-21 20:34 51.06091 7.66966 12291 ft 328 kts 268°
2026-04-21 20:35 51.05976 7.63429 12020 ft 327 kts 268°
2026-04-21 20:35 51.05860 7.59830 11635 ft 325 kts 268°
2026-04-21 20:35 51.05748 7.56265 11254 ft 322 kts 268°
2026-04-21 20:35 51.05637 7.52723 10878 ft 319 kts 268°
2026-04-21 20:36 51.05526 7.49215 10502 ft 317 kts 268°
2026-04-21 20:36 51.05414 7.45730 10135 ft 314 kts 268°
2026-04-21 20:36 51.05304 7.42279 9728 ft 311 kts 268°
2026-04-21 20:36 51.05192 7.38897 9321 ft 302 kts 268°
2026-04-21 20:37 51.05081 7.35585 8922 ft 298 kts 268°
2026-04-21 20:37 51.04973 7.32322 8530 ft 294 kts 268°
2026-04-21 20:37 51.04892 7.29096 8139 ft 290 kts 273°
2026-04-21 20:37 51.05171 7.25987 7751 ft 277 kts 287°
2026-04-21 20:38 51.05677 7.23109 7373 ft 264 kts 287°
2026-04-21 20:38 51.06122 7.20540 7023 ft 254 kts 287°
2026-04-21 20:38 51.06538 7.18118 6682 ft 247 kts 287°
2026-04-21 20:38 51.06987 7.15506 6290 ft 244 kts 287°
2026-04-21 20:39 51.07433 7.12928 5901 ft 238 kts 286°
2026-04-21 20:39 51.07866 7.10423 5549 ft 231 kts 286°
2026-04-21 20:39 51.08284 7.08005 5291 ft 224 kts 286°
2026-04-21 20:39 51.08695 7.05621 5037 ft 223 kts 286°
2026-04-21 20:40 51.09104 7.03242 4770 ft 223 kts 286°
2026-04-21 20:40 51.09409 7.00832 4509 ft 223 kts 274°
2026-04-21 20:40 51.09316 6.98376 4246 ft 223 kts 259°
2026-04-21 20:40 51.09036 6.95944 3995 ft 223 kts 259°
2026-04-21 20:41 51.08671 6.93551 3732 ft 222 kts 243°
2026-04-21 20:41 51.07778 6.91640 3515 ft 211 kts 216°
2026-04-21 20:41 51.06523 6.90559 3250 ft 202 kts 191°
2026-04-21 20:41 51.05162 6.90381 3051 ft 194 kts 170°
2026-04-21 20:42 51.03875 6.90635 3016 ft 175 kts 158°
2026-04-21 20:42 51.02854 6.91395 3014 ft 150 kts 139°
2026-04-21 20:42 51.02103 6.92432 3019 ft 142 kts 131°
2026-04-21 20:42 51.01387 6.93481 3030 ft 142 kts 132°
2026-04-21 20:43 51.00648 6.94561 3033 ft 142 kts 132°
2026-04-21 20:43 50.99915 6.95622 2981 ft 143 kts 133°
2026-04-21 20:43 50.99216 6.96606 2985 ft 132 kts 133°
2026-04-21 20:43 50.98539 6.97557 2876 ft 128 kts 132°
2026-04-21 20:44 50.97881 6.98492 2713 ft 126 kts 131°
2026-04-21 20:44 50.97239 6.99439 2515 ft 126 kts 130°
2026-04-21 20:44 50.96588 7.00400 2308 ft 129 kts 130°
2026-04-21 20:44 50.95934 7.01378 2124 ft 129 kts 130°
2026-04-21 20:45 50.95286 7.02358 1944 ft 130 kts 130°
2026-04-21 20:45 50.94628 7.03347 1767 ft 130 kts 131°
2026-04-21 20:45 50.93966 7.04321 1621 ft 131 kts 132°
2026-04-21 20:45 50.93291 7.05303 1522 ft 132 kts 132°
2026-04-21 20:46 50.92610 7.06286 1395 ft 133 kts 133°
2026-04-21 20:46 50.91922 7.07284 1235 ft 135 kts 134°
2026-04-21 20:46 50.91226 7.08290 1093 ft 136 kts 134°
2026-04-21 20:46 50.90521 7.09311 962 ft 138 kts 134°
2026-04-21 20:47 50.89810 7.10347 803 ft 139 kts 134°
2026-04-21 20:47 50.89088 7.11395 605 ft 142 kts 133°
2026-04-21 20:47 50.88364 7.12452 373 ft 141 kts 135°
2026-04-21 20:47 50.87654 7.13472 248 ft 128 kts 136°
2026-04-21 20:48 50.87163 7.14201 258 ft 77 kts 137°
2026-04-21 20:48 50.86893 7.14588 255 ft 11 kts 153°
2026-04-21 20:48 50.86867 7.14508 256 ft 9 kts 277°
2026-04-21 20:48 50.86875 7.14427 257 ft 6 kts 280°
2026-04-21 20:49 50.86881 7.14376 258 ft 6 kts 280°
2026-04-21 20:49 50.86898 7.14232 255 ft 19 kts 281°
2026-04-21 20:49 50.86924 7.13997 248 ft 23 kts 283°
2026-04-21 20:49 50.87005 7.13806 243 ft 20 kts 317°
2026-04-21 20:50 50.87116 7.13647 241 ft 23 kts 320°
2026-04-21 20:50 50.87244 7.13461 237 ft 27 kts 317°
2026-04-21 20:50 50.87384 7.13256 233 ft 20 kts 318°
2026-04-21 20:50 50.87494 7.13096 232 ft 23 kts 318°
2026-04-21 20:51 50.87623 7.12911 230 ft 26 kts 317°
2026-04-21 20:51 50.87752 7.12723 230 ft 23 kts 318°
2026-04-21 20:51 50.87840 7.12620 230 ft 12 kts 342°
2026-04-21 20:51 50.87889 7.12579 230 ft 7 kts 299°
2026-04-21 20:52 50.87900 7.12522 230 ft 2 kts 286°
2026-04-21 20:52 50.87901 7.12519 230 ft 0 kts 286°
2026-04-21 20:52 50.87903 7.12507 230 ft 2 kts 286°
2026-04-21 20:52 50.87904 7.12502 230 ft 0 kts 286°
2026-04-21 20:53 50.87905 7.12500 230 ft 0 kts 287°
2026-04-21 20:53 50.87905 7.12498 230 ft 1 kts 288°
2026-04-21 20:53 50.87906 7.12495 230 ft 0 kts 288°